Temp
24 24 24 24 24 24 24 24 24 24 24 24 24 24 24 24 24 24 24 24 24 23 23 24 24 23 23 24 24 24 24 24 24 24 24 24 24 24 25 25 25 25
24 24 24 24 24 24 24 24 24 24 24 24 24 24 24 24 24 24 24 24 24 23 23 23 23 23 23 23 24 24 24 24 24 24 24 24 24 24 25 25 25 25
24 24 24 24 24 24 24 24 24 24 24 24 24 24 24 24 24 24 24 24 24 23 23 23 23 23 23 23 24 23 23 23 24 24 24 24 24 24 25 25 25 25
24 24 24 24 24 24 24 24 24 24 24 24 24 25 25 24 24 24 24 24 24 24 24 24 24 24 24 24 24 23 23 23 24 24 23 23 24 24 24 24 25 25
24 24 24 24 24 24 24 24 24 24 24 24 24 24 25 25 24 24 24 24 24 24 24 24 24 24 24 24 24 23 23 24 24 23 23 23 24 24 24 24 24 24
24 24 24 24 24 24 24 24 24 24 24 24 24 24 24 24 24 24 24 24 24 24 24 24 24 24 24 24 24 24 24 24 24 23 23 23 24 24 24 24 24 24
24 24 24 24 24 24 24 24 24 24 24 24 24 24 24 24 24 24 24 24 24 24 24 24 24 24 24 24 24 24 24 24 24 23 23 23 24 24 24 24 24 24
24 24 24 24 24 24 24 24 24 24 24 24 24 24 24 24 24 24 24 24 24 24 24 24 24 24 24 24 24 24 24 24 24 24 23 24 24 24 24 24 24 24
24 24 24 24 24 24 24 24 24 24 24 24 24 24 24 24 24 24 24 24 24 24 25 24 24 25 24 24 24 24 24 24 24 24 24 24 24 24 24 24 24 24
24 24 24 24 24 24 24 24 24 24 24 24 24 24 24 24 24 24 24 25 25 25 25 25 25 25 25 24 24 24 24 24 24 24 24 24 24 24 24 24 24 24
24 24 24 24 24 24 24 25 25 24 24 24 24 24 24 24 24 25 25 25 25 25 25 25 25 25 25 25 24 24 24 24 24 24 24 24 24 24 24 24 24 24
23 23 23 24 24 24 24 24 24 24 24 24 24 24 24 24 24 24 25 25 25 25 25 25 25 25 25 25 25 25 25 25 25 25 25 24 24 24 24 24 24 24
23 23 23 24 24 24 24 24 24 24 25 24 24 24 24 25 25 25 25 25 25 25 25 25 25 25 25 26 26 25 25 25 25 25 25 25 25 25 25 24 24 24
23 23 23 24 24 24 24 24 24 24 24 24 24 24 25 25 25 25 25 25 25 25 25 25 26 26 26 26 26 26 26 26 26 25 25 25 25 25 25 25 25 25
24 23 24 24 24 24 24 24 24 24 24 24 24 24 25 25 25 25 25 25 25 25 26 26 26 26 26 26 26 26 26 25 25 25 25 25 25 25 25 25 25 25
24 24 24 24 24 24 24 24 24 24 24 24 24 24 24 25 25 25 25 25 25 25 26 26 25 25 26 26 26 25 25 25 25 25 25 25 25 25 25 25 25 25
23 23 23 23 23 24 24 24 24 24 24 24 24 24 24 24 24 24 25 25 25 25 25 25 25 25 25 26 26 25 25 24 24 24 24 24 25 25 25 25 25 25
22 22 22 22 23 23 24 23 23 23 23 23 23 23 23 23 23 24 25 24 24 25 25 25 25 25 25 25 25 25 25 24 23 23 24 24 24 24 24 25 25 25
22 21 21 22 22 22 22 23 23 22 22 22 23 23 23 23 23 23 24 24 24 24 24 24 24 25 25 25 25 25 25 24 23 23 23 23 24 24 24 24 24 24
21 20 20 20 20 20 20 21 21 22 22 22 22 23 23 23 23 23 24 24 23 23 23 23 24 24 24 24 24 24 24 24 23 23 22 22 23 23 23 23 23 23
20 20 19 19 19 19 19 20 20 20 21 22 22 22 23 23 23 23 23 23 22 23 23 22 23 23 23 23 23 23 23 23 22 22 22 22 22 22 22 22 22 22
20 20 19 19 19 19 20 20 20 20 21 22 23 22 22 22 22 22 22 21 21 22 21 21 21 21 21 21 22 22 22 21 21 21 21 21 21 21 21 21 21 21
20 20 19 19 19 19 20 21 21 20 20 22 22 21 21 21 21 21 21 20 20 20 20 20 20 20 20 20 20 20 20 20 20 20 20 20 21 21 21 21 21 21
20 20 19 19 19 19 20 20 20 20 20 21 21 21 20 20 20 20 19 19 19 19 19 19 19 19 19 19 19 19 20 20 20 20 20 20 20 20 20 20 20 20
19 19 19 19 19 19 19 20 20 20 21 20 20 19 19 19 19 19 18 18 18 18 18 18 18 18 18 18 19 19 19 19 19 20 19 19 19 20 20 20 19 19
18 18 18 18 18 18 18 19 19 19 20 19 18 18 18 18 18 18 18 18 18 18 18 18 18 18 18 18 18 18 19 19 19 19 19 19 19 19 19 19 19 18
Height
854 855 857 858 859 860 861 862 862 863 864 865 866 866 867 867 868 869 870 870 871 871 872 872 872 873 873 874 874 874 874 874 874 874 874 874 874 874 874 874 873 873
853 854 855 857 858 859 860 860 861 862 863 864 864 865 866 866 867 868 869 869 870 870 871 871 871 872 872 873 873 874 874 874 874 874 873 873 874 873 873 873 873 872
851 853 854 855 856 857 858 859 860 861 862 862 863 864 865 865 866 867 868 868 869 869 870 870 870 871 871 872 872 873 873 873 873 873 873 873 873 873 872 872 872 872
850 851 852 854 855 856 856 857 858 859 860 861 862 863 863 864 865 865 866 867 867 868 869 869 869 870 870 871 871 872 872 872 872 872 872 872 872 872 872 872 871 871
848 850 851 852 853 854 855 855 857 858 859 860 860 861 862 863 864 864 865 865 866 867 867 868 868 869 869 870 870 870 871 871 871 871 871 871 871 871 871 870 870 870
846 848 849 851 851 853 853 854 855 856 857 858 859 860 861 861 862 863 864 864 865 866 866 867 867 868 868 868 869 869 870 870 870 870 870 870 870 870 870 870 869 869
844 845 847 849 850 851 852 853 854 855 856 857 858 859 860 860 861 861 862 863 864 864 865 865 866 866 867 867 867 868 868 869 869 869 869 869 869 869 869 869 868 868
842 843 845 846 848 849 850 852 853 854 855 856 856 857 858 859 860 860 861 862 862 863 863 864 864 865 865 866 866 867 867 868 868 868 868 868 868 868 868 868 868 867
840 841 843 844 846 847 848 850 851 852 853 854 855 856 857 857 858 859 860 860 861 861 862 862 863 863 864 864 865 865 866 866 866 866 867 867 867 867 867 867 867 866
838 839 841 842 844 845 846 847 849 850 852 853 854 855 855 856 857 858 858 859 859 860 860 861 861 862 862 863 863 863 864 864 865 865 865 866 866 866 865 865 865 865
835 837 839 840 841 842 844 845 847 848 850 851 852 853 854 855 855 856 857 857 858 858 859 859 860 860 861 861 861 862 862 862 863 863 864 864 864 864 864 864 864 864
833 835 836 838 839 840 842 844 845 847 848 849 850 851 852 853 854 855 855 856 856 857 858 858 858 859 859 859 860 860 860 861 861 861 861 862 862 862 862 862 862 862
831 833 834 836 838 839 841 843 844 846 846 847 849 849 850 851 852 853 854 854 855 855 856 856 857 857 857 857 858 858 858 859 859 859 859 859 860 860 860 860 860 860
830 832 833 834 836 838 840 841 843 844 845 846 847 848 849 850 851 852 852 853 854 854 854 855 855 855 855 855 856 856 856 857 857 857 857 857 857 857 857 857 857 858
827 829 831 833 835 836 838 840 841 843 844 845 846 846 847 848 849 850 851 852 852 852 853 853 853 853 853 854 854 854 854 855 855 855 855 855 855 855 855 855 855 855
825 827 829 831 833 834 836 838 840 841 842 843 844 845 846 847 848 849 850 850 851 851 851 852 852 852 852 852 852 852 852 852 852 852 852 852 852 852 852 852 852 853
825 826 828 829 831 833 835 836 838 839 841 842 843 844 845 846 847 847 848 849 849 849 850 850 850 850 850 850 850 850 850 850 850 850 850 850 850 850 850 850 850 850
827 827 828 828 830 832 833 835 837 838 840 841 842 843 844 845 846 846 846 847 847 848 848 848 848 848 848 848 848 848 848 848 848 849 848 848 848 848 848 848 848 848
826 828 829 829 829 831 834 835 836 836 837 839 840 841 842 843 846 846 845 845 846 846 847 847 847 847 847 847 847 846 847 846 846 846 846 846 846 846 846 846 846 846
822 827 830 830 827 830 835 837 835 834 835 837 838 839 840 841 843 844 844 844 844 845 845 845 845 845 845 845 845 844 844 844 844 844 844 844 844 844 844 844 844 844
820 824 829 830 826 827 834 837 837 835 835 835 837 839 839 840 841 842 842 842 843 843 844 844 844 844 844 843 843 843 843 843 843 842 843 843 842 843 843 843 842 842
819 821 826 830 828 826 830 834 836 835 835 834 834 836 838 838 839 840 841 842 842 842 843 843 842 842 842 842 842 842 841 841 841 841 841 841 841 841 841 841 840 840
817 820 823 827 828 827 829 832 833 833 834 833 834 835 836 837 837 838 840 841 841 841 841 841 840 840 841 841 840 840 840 840 839 839 839 839 839 839 839 839 838 838
817 819 821 824 827 828 830 831 832 832 832 833 834 835 835 835 836 837 838 839 840 840 840 840 840 840 840 840 839 839 839 839 838 837 837 836 836 836 836 836 836 835
817 819 821 824 827 829 830 830 830 830 831 832 833 833 834 834 835 836 837 838 839 840 840 840 840 840 839 839 839 838 838 837 836 835 835 834 833 833 833 833 833 832
818 821 823 825 828 830 831 831 830 829 830 832 833 833 833 834 835 835 836 838 839 840 840 841 840 839 839 839 838 838 837 836 835 834 834 833 832 831 831 830 830 829
Wind_Speed
18 16 15 15 16 15 14 14 13 12 12 10 9 8 8 9 9 9 9 8 8 8 7 7 7 8 7 7 6 6 6 6 5 5 5 5 4 4 4 4 4 4
19 17 16 15 16 16 15 15 14 13 13 12 11 10 10 10 9 10 10 9 9 8 8 8 8 8 7 7 7 6 7 7 6 5 5 6 6 5 5 5 5 5
20 18 16 15 15 15 14 14 15 14 13 12 12 12 11 10 10 11 10 10 10 9 9 9 8 8 8 8 8 7 7 8 7 6 7 7 7 7 7 6 6 6
22 19 17 16 14 14 13 13 14 14 13 12 12 11 11 11 11 11 11 11 10 10 9 9 9 9 9 9 9 9 8 9 8 8 8 8 8 8 7 7 7 7
23 21 18 17 15 14 13 13 13 12 13 12 11 11 11 11 11 10 10 11 10 10 10 10 10 10 10 10 10 9 8 8 8 8 9 9 8 8 7 7 8 8
24 22 19 18 16 15 13 13 12 12 12 11 10 10 10 10 10 10 10 10 9 9 9 10 10 10 9 10 10 9 9 8 8 8 9 9 9 8 8 8 8 8
23 22 20 18 17 16 14 13 13 12 12 11 10 11 10 10 11 10 10 10 10 9 9 9 10 10 10 10 10 10 10 10 9 9 10 10 9 9 9 8 8 8
22 22 21 19 17 16 15 13 13 13 12 11 11 11 11 11 10 10 10 10 10 9 9 10 11 11 10 9 10 11 11 10 9 9 10 10 10 10 10 9 9 9
22 21 21 20 17 16 15 14 13 12 12 12 11 10 11 11 11 10 10 10 9 9 10 10 10 10 10 10 11 11 11 10 9 9 9 9 10 10 9 9 9 9
23 22 20 19 17 16 16 15 13 12 12 12 11 10 10 11 11 11 10 10 9 10 10 10 10 10 10 11 11 11 11 11 11 10 10 10 10 10 10 9 9 10
24 23 21 21 20 18 17 16 14 13 12 12 11 11 10 10 11 11 11 10 10 10 10 10 10 10 10 11 10 11 11 11 12 12 12 12 12 12 12 11 11 11
22 21 21 22 22 21 18 16 14 13 13 12 12 11 10 10 10 10 11 11 11 11 11 11 11 11 11 11 11 11 12 12 13 13 13 13 12 12 12 12 11 12
20 20 20 21 21 22 20 17 14 13 13 12 12 12 11 11 10 10 11 12 12 12 12 12 13 13 13 13 12 13 14 14 14 14 14 14 14 14 13 12 12 12
21 20 21 22 22 21 20 19 16 14 12 12 12 11 11 11 10 10 10 11 12 12 13 13 13 14 14 13 13 14 15 16 16 16 15 14 15 15 14 15 15 14
25 23 23 24 23 21 20 19 18 16 14 13 13 12 11 11 11 10 10 10 10 11 11 13 13 14 14 14 14 14 14 15 16 16 16 15 16 16 15 16 17 16
26 26 25 24 23 21 20 19 18 17 15 14 14 13 12 11 11 10 9 9 10 10 11 12 11 12 13 14 14 14 15 14 15 16 17 17 17 17 16 16 17 17
19 21 22 23 23 21 20 18 18 17 16 14 13 12 12 12 11 11 10 9 8 8 8 7 7 8 11 11 12 13 14 14 14 14 15 15 16 17 17 16 16 16
11 13 14 17 19 20 19 18 16 14 13 11 9 8 9 9 8 8 8 7 6 5 4 4 6 8 10 10 10 11 11 11 11 11 11 12 13 14 15 15 15 16
13 11 11 12 13 14 14 14 13 12 9 8 9 9 8 7 6 7 7 7 7 7 6 7 9 10 10 11 11 12 11 11 11 12 12 11 11 12 13 14 15 16
14 12 12 10 8 6 7 9 11 10 8 6 7 9 9 10 11 12 12 11 9 8 7 8 9 9 10 11 11 12 12 11 11 12 12 12 12 12 12 13 13 14
13 12 12 9 7 7 5 5 6 5 5 4 4 6 8 10 12 13 12 10 9 8 7 8 9 9 9 10 10 11 12 11 11 12 11 10 11 12 11 12 12 12
13 14 14 10 8 11 9 7 7 7 7 7 8 8 9 9 8 8 8 8 7 8 6 7 9 10 10 11 12 12 12 11 11 11 11 10 11 11 11 11 12 12
13 13 14 11 11 12 10 9 9 8 7 8 9 8 8 7 5 4 4 6 7 8 8 9 12 13 13 12 13 13 13 12 12 12 12 12 12 11 12 12 13 14
13 13 13 13 12 11 11 8 7 6 6 7 6 4 4 5 5 4 3 4 6 7 7 8 9 10 10 11 12 13 13 13 14 14 14 13 14 15 16 16 16 17
15 15 14 13 11 11 10 8 6 6 5 5 4 3 3 4 4 4 4 3 2 3 4 5 5 6 7 9 10 11 11 11 11 12 12 13 14 16 17 16 15 16
17 17 16 15 15 14 11 9 9 8 6 4 3 3 3 4 5 4 3 2 1 0 1 1 2 3 5 5 6 6 7 7 7 7 8 9 11 12 12 12 11 11
Wind_Direction
225 227 231 237 241 245 248 251 250 245 241 236 234 240 246 248 245 240 243 250 254 259 263 259 254 253 256 266 273 275 275 276 275 276 279 281 283 285 285 284 286 292
222 224 229 236 243 249 253 253 251 249 248 246 246 249 252 254 251 247 248 255 257 259 263 261 254 252 253 259 265 270 274 279 279 275 274 275 277 280 280 280 280 282
220 223 228 233 239 245 247 249 251 251 248 249 253 255 254 254 255 253 253 257 259 259 261 259 252 252 256 256 259 263 266 272 274 270 273 274 275 276 277 278 278 278
220 224 229 229 232 237 237 239 245 246 245 248 255 257 254 256 258 257 257 260 262 262 259 256 253 256 259 260 262 263 264 269 268 265 268 270 269 270 271 272 272 274
222 225 228 229 231 234 231 230 233 236 241 248 254 256 257 259 257 254 257 260 261 261 259 256 256 259 261 262 264 261 262 267 265 262 263 264 265 265 264 266 268 272
222 226 229 230 233 234 228 226 227 231 237 242 247 251 253 255 252 251 254 255 255 255 254 254 257 259 259 261 263 261 261 266 265 262 260 262 266 266 266 267 268 273
221 225 228 228 229 231 229 228 231 234 236 239 244 248 247 248 250 253 255 255 253 252 253 256 260 262 261 260 263 263 265 269 267 264 262 264 268 271 271 270 270 276
219 221 224 225 224 226 228 230 233 237 239 240 241 244 246 246 246 250 254 254 253 254 256 260 265 267 263 259 261 263 265 267 265 264 265 266 269 273 273 270 272 277
219 220 222 223 220 221 225 227 230 234 240 241 237 237 241 243 241 244 252 257 257 259 262 266 268 269 265 262 264 265 265 267 267 267 268 269 270 273 275 273 273 276
221 221 221 220 218 219 220 220 223 228 235 237 235 234 236 237 238 242 253 260 263 264 267 269 271 269 266 265 267 268 269 269 272 274 273 274 274 274 277 276 274 275
221 221 221 221 222 222 219 218 218 221 228 233 234 236 236 236 239 246 255 262 265 269 273 275 275 273 271 269 268 270 274 273 274 277 277 277 277 276 276 276 275 275
219 218 220 223 227 227 223 219 217 218 224 228 232 235 236 237 240 247 257 263 266 269 274 277 279 280 280 279 275 272 274 275 274 276 279 279 278 275 273 273 273 273
217 216 219 222 227 230 229 225 222 223 226 226 229 233 236 238 240 248 259 266 270 272 274 279 282 284 285 284 280 275 274 275 275 274 275 276 276 274 270 270 272 273
221 221 224 226 229 232 233 231 228 227 228 228 230 232 235 239 241 248 259 266 270 274 278 281 283 284 285 284 280 277 274 274 274 274 272 274 277 276 271 270 272 273
225 225 229 232 233 234 235 235 234 233 234 236 237 236 237 240 242 250 260 265 269 276 280 280 279 279 281 282 280 278 277 274 273 273 272 272 274 274 271 271 275 276
225 227 230 232 232 233 235 236 236 236 238 239 240 240 242 244 248 255 262 264 265 271 275 276 276 275 277 280 279 277 276 274 272 274 275 273 273 273 269 269 272 275
225 225 227 229 230 233 236 237 237 238 243 245 244 247 249 249 251 256 260 264 265 266 271 272 268 268 274 279 279 278 277 275 273 276 277 273 272 270 268 267 269 272
235 229 225 226 231 235 236 238 240 240 245 246 239 241 247 248 255 259 255 256 259 256 260 265 266 274 282 285 284 284 282 278 273 272 273 271 269 267 267 267 269 273
234 238 234 227 229 240 246 240 233 229 233 237 236 240 246 252 263 263 249 245 253 257 259 264 268 275 281 284 286 287 287 285 279 274 273 273 271 269 270 271 272 276
219 230 240 231 212 229 252 237 220 213 211 218 240 251 252 248 245 244 244 246 251 256 258 260 264 268 273 278 283 286 287 289 286 282 280 278 276 276 276 276 277 278
200 207 222 219 174 158 183 223 221 203 185 192 237 250 241 238 237 240 245 248 249 250 252 256 264 271 276 281 285 288 290 292 290 288 287 284 282 283 282 283 283 281
193 198 207 205 173 159 170 202 207 191 193 214 223 219 219 226 232 238 245 250 254 256 256 261 271 279 285 287 288 291 294 296 294 293 292 290 289 290 289 288 287 286
187 198 197 179 158 160 174 189 185 174 187 212 213 206 212 223 225 233 250 260 263 262 262 267 273 280 286 288 289 291 294 297 298 296 295 294 294 293 293 291 289 290
170 176 172 158 152 165 181 187 180 175 195 222 224 214 218 224 224 229 236 244 253 257 262 269 275 284 293 297 299 300 300 301 301 299 298 298 297 297 298 297 296 294
156 158 156 150 144 152 165 168 154 146 167 206 212 182 171 178 183 190 186 180 208 247 264 276 287 301 313 316 314 311 309 308 306 305 305 306 306 306 307 306 304 300
126 130 134 135 132 132 134 133 127 125 140 171 176 147 131 127 133 149 153 142 145 231 282 310 348 9 12 8 360 354 352 348 343 340 336 334 332 330 326 321 317 310